Volver al catálogo

STARLINK-30715

ActivoComunicacionesVLEO
NORAD 57941·PAYLOAD·🇺🇸 United States

Lanzado Sep 25, 2023 desde Vandenberg Space Force Base

Loading…

Próximos Pases (próximas 24 horas)

TLE

ActualizadoSource: CelesTrak SupGP

Época: Sep 14, 2026, 21:35 UTC

1 57941C 23148G   26257.89979167  .00021607  00000+0  63818-3 0  2573
2 57941  53.1590 213.5375 0001506 100.8542  46.1318 15.34388671    19

Sigue STARLINK-30715 en tiempo real con AllMySat

Download on the App Store